Weather History for Provincetown, MA

Change the Weather History Date:

Wednesday, February 20, 2013

  Actual Average Record
Temperature  
Mean Temperature 37 °F -  
Max Temperature 46 °F 36 °F 56 °F (1954)
Min Temperature 28 °F 26 °F 16 °F (1958)
Degree Days  
Heating Degree Days 28    
Moisture  
Dew Point 23 °F    
Average Humidity 61    
Maximum Humidity 87    
Minimum Humidity 41    
Precipitation  
Precipitation 0.00 in - - ()
Sea Level Pressure  
Sea Level Pressure 29.64 in    
Wind  
Wind Speed 16 mph (West)    
Max Wind Speed 29 mph    
Max Gust Speed 37 mph    
Visibility 10 miles    
Events      
Averages and records for this station are not official NWS values.
T = Trace of Precipitation, MM = Missing Value Source: NWS Daily Summary

Daily Weather History Graph

Daily Weather History Graph

Search for Another Location

Airport:

Trip Planner

Search our weather history database for the weather conditions in past years. The results will help you decide how hot, cold, wet, or windy it might be!

Date:

Astronomy

Feb. 20, 2013 Rise Set
Actual Time 6:29 AM EST 5:20 PM EST
Civil Twilight 6:01 AM EST 5:48 PM EST
Nautical Twilight 5:28 AM EST 6:21 PM EST
Astronomical Twilight 4:56 AM EST 6:53 PM EST
Moon 12:35 PM EST (2/20) 2:50 AM EST (2/20)
Length of Visible Light 11h 47m
Length of Day
10h 50m
Waxing Gibbous, 76% of the Moon is Illuminated
Feb 20
Waxing Gibbous
Feb 25
Full
Mar 4
Last Quarter
Mar 11
New
Mar 19
First Quarter

Hourly Weather History & Observations

Time (EST) Temp. Windchill Dew Point Humidity Pressure Visibility Wind Dir Wind Speed Gust Speed Precip Events Conditions
12:15 AM 46.4 °F 40.7 °F 41.0 °F 81% 29.60 in 5.0 mi SSW 12.7 mph - N/A   Overcast
12:35 AM 46.4 °F 42.4 °F 42.8 °F 87% 29.58 in 10.0 mi SSW 8.1 mph - N/A   Overcast
12:55 AM 46.4 °F 42.4 °F 42.8 °F 87% 29.57 in 10.0 mi SSW 8.1 mph - N/A   Overcast
1:15 AM 46.4 °F 41.9 °F 42.8 °F 87% 29.56 in 10.0 mi SSW 9.2 mph - N/A   Overcast
1:35 AM 46.4 °F 41.9 °F 42.8 °F 87% 29.55 in 10.0 mi SW 9.2 mph - N/A   Overcast
1:55 AM 46.4 °F 41.1 °F 39.2 °F 76% 29.56 in 10.0 mi WSW 11.5 mph - N/A   Overcast
2:15 AM 44.6 °F 39.2 °F 39.2 °F 81% 29.55 in 10.0 mi WSW 10.4 mph - N/A   Overcast
2:35 AM 44.6 °F 38.8 °F 39.2 °F 81% 29.55 in 10.0 mi WSW 11.5 mph - N/A   Overcast
2:55 AM 42.8 °F 34.8 °F 39.2 °F 87% 29.55 in 10.0 mi WSW 17.3 mph - N/A   Overcast
3:15 AM 42.8 °F 35.8 °F 37.4 °F 81% 29.56 in 10.0 mi West 13.8 mph - N/A   Mostly Cloudy
3:35 AM 42.8 °F 35.8 °F 37.4 °F 81% 29.55 in 10.0 mi West 13.8 mph - N/A   Scattered Clouds
4:15 AM 42.8 °F 36.2 °F 35.6 °F 76% 29.55 in 10.0 mi West 12.7 mph - N/A   Mostly Cloudy
4:35 AM 42.8 °F 36.2 °F 37.4 °F 81% 29.56 in 10.0 mi WSW 12.7 mph - N/A   Overcast
4:55 AM 41.0 °F 33.9 °F 35.6 °F 81% 29.56 in 10.0 mi WSW 12.7 mph - N/A   Overcast
5:15 AM 41.0 °F 33.5 °F 35.6 °F 81% 29.56 in 10.0 mi WSW 13.8 mph - N/A   Overcast
5:35 AM 39.2 °F 30.2 °F 35.6 °F 87% 29.57 in 10.0 mi West 17.3 mph 21.9 mph N/A   Overcast
5:55 AM 37.4 °F 26.9 °F 30.2 °F 75% 29.57 in 10.0 mi WNW 20.7 mph 27.6 mph N/A   Overcast
6:15 AM 37.4 °F 26.6 °F 30.2 °F 75% 29.58 in 10.0 mi WNW 21.9 mph 27.6 mph N/A   Mostly Cloudy
6:35 AM 35.6 °F 25.2 °F 30.2 °F 81% 29.60 in 10.0 mi West 18.4 mph 25.3 mph N/A   Mostly Cloudy
6:55 AM 35.6 °F 24.5 °F 26.6 °F 70% 29.61 in 10.0 mi West 20.7 mph 28.8 mph N/A   Overcast
7:15 AM 35.6 °F 24.8 °F 26.6 °F 70% 29.62 in 10.0 mi West 19.6 mph 31.1 mph N/A   Overcast
7:35 AM 35.6 °F 24.0 °F 26.6 °F 70% 29.62 in 10.0 mi WNW 23.0 mph 28.8 mph N/A   Overcast
7:55 AM 35.6 °F 24.8 °F 24.8 °F 65% 29.62 in 10.0 mi West 19.6 mph 28.8 mph N/A   Overcast
8:15 AM 35.6 °F 24.8 °F 24.8 °F 65% 29.63 in 10.0 mi West 19.6 mph 29.9 mph N/A   Overcast
8:35 AM 33.8 °F 21.3 °F 21.2 °F 60% 29.64 in 10.0 mi West 24.2 mph 35.7 mph N/A   Overcast
9:15 AM 33.8 °F 21.9 °F 19.4 °F 56% 29.65 in 10.0 mi West 21.9 mph 32.2 mph N/A   Overcast
9:35 AM 33.8 °F 22.2 °F 21.2 °F 60% 29.65 in 10.0 mi West 20.7 mph 29.9 mph N/A   Overcast
10:15 AM 35.6 °F 25.2 °F 19.4 °F 52% 29.65 in 10.0 mi West 18.4 mph 27.6 mph N/A   Clear
10:35 AM 35.6 °F 23.7 °F 19.4 °F 52% 29.65 in 10.0 mi WNW 24.2 mph 29.9 mph N/A   Clear
10:55 AM 35.6 °F 25.2 °F 21.2 °F 56% 29.65 in 10.0 mi West 18.4 mph 27.6 mph N/A   Partly Cloudy
11:15 AM 35.6 °F 25.2 °F 17.6 °F 48% 29.65 in 10.0 mi West 18.4 mph 26.5 mph N/A   Scattered Clouds
11:35 AM 35.6 °F 24.5 °F 19.4 °F 52% 29.65 in 10.0 mi WNW 20.7 mph 28.8 mph N/A   Scattered Clouds
12:35 PM 35.6 °F 24.8 °F 17.6 °F 48% 29.64 in 10.0 mi West 19.6 mph 27.6 mph N/A   Mostly Cloudy
12:55 PM 35.6 °F 24.8 °F 17.6 °F 48% 29.63 in 10.0 mi WNW 19.6 mph 26.5 mph N/A   Overcast
1:15 PM 35.6 °F 24.5 °F 17.6 °F 48% 29.63 in 10.0 mi WNW 20.7 mph 28.8 mph N/A   Mostly Cloudy
1:35 PM 35.6 °F 25.2 °F 19.4 °F 52% 29.63 in 10.0 mi West 18.4 mph 26.5 mph N/A   Overcast
1:55 PM 35.6 °F 24.2 °F 19.4 °F 52% 29.63 in 10.0 mi WNW 21.9 mph 31.1 mph N/A   Overcast
2:15 PM 35.6 °F 24.8 °F 17.6 °F 48% 29.63 in 10.0 mi West 19.6 mph 27.6 mph N/A   Mostly Cloudy
2:35 PM 35.6 °F 24.8 °F 17.6 °F 48% 29.63 in 10.0 mi West 19.6 mph 27.6 mph N/A   Mostly Cloudy
2:55 PM 35.6 °F 24.5 °F 15.8 °F 44% 29.64 in 10.0 mi West 20.7 mph 26.5 mph N/A   Mostly Cloudy
3:35 PM 33.8 °F 22.2 °F 14.0 °F 44% 29.64 in 10.0 mi West 20.7 mph 32.2 mph N/A   Overcast
3:55 PM 33.8 °F 22.5 °F 15.8 °F 48% 29.65 in 10.0 mi West 19.6 mph 27.6 mph N/A   Mostly Cloudy
4:15 PM 33.8 °F 21.6 °F 15.8 °F 48% 29.65 in 10.0 mi WNW 23.0 mph 27.6 mph N/A   Overcast
4:35 PM 33.8 °F 21.9 °F 14.0 °F 44% 29.65 in 10.0 mi West 21.9 mph 27.6 mph N/A   Overcast
4:55 PM 33.8 °F 21.6 °F 14.0 °F 44% 29.66 in 10.0 mi West 23.0 mph 31.1 mph N/A   Overcast
5:15 PM 33.8 °F 21.9 °F 12.2 °F 41% 29.66 in 10.0 mi West 21.9 mph 32.2 mph N/A   Mostly Cloudy
5:35 PM 32.0 °F 18.4 °F 14.0 °F 48% 29.67 in 10.0 mi WNW 26.5 mph 29.9 mph N/A   Mostly Cloudy
5:55 PM 32.0 °F 19.8 °F 12.2 °F 44% 29.68 in 10.0 mi West 20.7 mph 33.4 mph N/A   Mostly Cloudy
6:35 PM 30.2 °F 15.9 °F 12.2 °F 47% 29.69 in 10.0 mi West 26.5 mph 36.8 mph N/A   Scattered Clouds
6:55 PM 30.2 °F 16.5 °F 10.4 °F 44% 29.70 in 10.0 mi WNW 24.2 mph 35.7 mph N/A   Clear
7:15 PM 30.2 °F 15.4 °F 12.2 °F 47% 29.71 in 10.0 mi WNW 28.8 mph 35.7 mph N/A   Clear
7:35 PM 30.2 °F 16.5 °F 12.2 °F 47% 29.71 in 10.0 mi West 24.2 mph 35.7 mph N/A   Partly Cloudy
7:55 PM 30.2 °F 17.4 °F 12.2 °F 47% 29.72 in 10.0 mi West 20.7 mph 31.1 mph N/A   Partly Cloudy
8:15 PM 28.4 °F 14.4 °F 10.4 °F 47% 29.72 in 10.0 mi WNW 23.0 mph 33.4 mph N/A   Mostly Cloudy
8:35 PM 28.4 °F 14.4 °F 10.4 °F 47% 29.73 in 10.0 mi West 23.0 mph 29.9 mph N/A   Mostly Cloudy
9:15 PM 28.4 °F 14.4 °F 12.2 °F 51% 29.73 in 10.0 mi West 23.0 mph 31.1 mph N/A   Mostly Cloudy
9:35 PM 28.4 °F 13.8 °F 14.0 °F 55% 29.74 in 10.0 mi West 25.3 mph 34.5 mph N/A   Overcast
10:35 PM 28.4 °F 14.4 °F 12.2 °F 51% 29.75 in 10.0 mi West 23.0 mph 29.9 mph N/A   Overcast
10:55 PM 28.4 °F 13.5 °F 12.2 °F 51% 29.76 in 10.0 mi West 26.5 mph 34.5 mph N/A   Scattered Clouds
11:35 PM 28.4 °F 14.1 °F 15.8 °F 59% 29.77 in 10.0 mi WNW 24.2 mph 28.8 mph N/A   Clear
11:55 PM 28.4 °F 15.1 °F 15.8 °F 59% 29.78 in 10.0 mi WNW 20.7 mph 33.4 mph N/A   Scattered Clouds